Flag for Micronesia Weather past 2 weeks in Kolonia, Ponape, Micronesia

Now
85 °F

Mostly cloudy.


Feels Like: 95 °F
Forecast: 77 / 87 °F
Wind: 3 mph from Southeast

Location: Pohnpei

Current Time: Mar 27, 2015 at 1:54:35 PM

Latest Report: Mar 27, 2015 at 12:53 PM


Visibility: 15 mi

Pressure: 29.72 "Hg

Humidity: 77%

Dew point: 77 °F

Location of KoloniaLocation

Historic Weather in Kolonia — Graph

°F

Kolonia temperature yesterday

Maximum temperature yesterday: 83 °F (at 12:50 PM)
Minimum temperature yesterday: 76 °F (at 10:56 PM)
Average temperature yesterday: 80 °F

Past Weeks' High & Low Weather Summary

 TemperatureHumidityPressure
High92 °F (Mar 14, 1:52 PM)100% (Mar 19, 6:53 PM)29.98 "Hg (Mar 19, 6:53 PM)
Low73 °F (Mar 21, 5:50 AM)59% (Mar 16, 10:53 AM)29.57 "Hg (Mar 13, 2:50 PM)
Average81 °F85%29.84 "Hg
* Reported Mar 12 11:50 AM — Mar 27 11:53 AM, Kolonia, Weather by CustomWeather, © 2015

Note: Actual official high and low records may vary slightly from our data, if they occured in-between our weather recording intervals... More about our weather records

Advertising

Kolonia weather history for previous 24 hours

 ConditionsComfort  
Time TempWeatherWind HumidityBarometerVisibility
11:53 AM
Fri, Mar 27
81 °FMostly cloudy.3 mph86%29.75 "Hg15 mi
10:54 AM80 °FSprinkles. Mostly cloudy.5 mph92%29.75 "Hg10 mi
9:55 AM79 °FSprinkles. Mostly cloudy.10 mph92%29.78 "Hg7 mi
8:53 AM78 °FSprinkles. Mostly cloudy.5 mph95%29.78 "Hg7 mi
7:55 AM82 °FSprinkles. Mostly cloudy.2 mph84%29.78 "Hg10 mi
6:55 AM78 °FMostly cloudy.6 mph95%29.71 "Hg15 mi
4:52 AM78 °FMostly cloudy.9 mph94%29.72 "Hg15 mi
3:54 AM78 °FLight rain. Mostly cloudy.5 mph96%29.74 "Hg14 mi
2:51 AM78 °FLight rain. Mostly cloudy.3 mph96%29.75 "Hg12 mi
12:55 AM77 °FSprinkles. Mostly cloudy.7 mph92%29.80 "Hg10 mi
11:55 PM
Thu, Mar 26
77 °FRain showers. Mostly cloudy.6 mph92%29.86 "Hg8 mi
10:56 PM76 °FSprinkles. Mostly cloudy.5 mph97%29.88 "Hg10 mi
8:51 PM76 °FSprinkles. Mostly cloudy.3 mph96%29.90 "Hg10 mi
7:52 PM78 °FSprinkles. Mostly cloudy.5 mph95%29.88 "Hg12 mi
6:52 PM78 °FMostly cloudy.5 mph92%29.87 "Hg15 mi
5:52 PM82 °FMostly cloudy.5 mph81%29.84 "Hg15 mi
4:56 PM82 °FMostly cloudy.5 mph78%29.83 "Hg15 mi
3:55 PM83 °FMostly cloudy.3 mph78%29.83 "Hg15 mi
2:52 PM83 °FMostly cloudy.7 mph79%29.83 "Hg15 mi
1:54 PM83 °FMostly cloudy.6 mph76%29.85 "Hg15 mi
Weather by CustomWeather, © 2015

See weather overviewHow to use our weather pages